COSMOS 249 DEB, 3912

Orbit data source: Space-Track

COSMOS 249 DEB, 3912 is space debris in LEO originally from a launch on Sun, 20 Oct 1968 UTC launched from the Tyuratam Missile And Space Complex (TTMTR). Debris objects in space refer to the collection of defunct objects orbiting the Earth. Examples of debris include non-operational satellites, rocket bodies, and fragments generated from explosions, collisions, or faulty payload assembly.

Loading next visibility...
Identifier
3912, 1968-091BQ
Orbit
LEO
Country
Flag of CISCIS
Related business
Manufacturer
Unknown
Mission
Spacecraft
Bus & Motor
Unknown
Mass
Unknown
Launch date (UTC)
1968-10-20 (58 years ago)
Launch vehicle
Unknown
Launch site
Tyuratam Missile And Space Complex (TTMTR)
Object type
Payload
Rocket body
Debris
Shape & HBR
Unknown shape, 0.1 m
Radar Cross Section
Medium (>0.1 m² and <1 m²)

Expand to show TLE details & history
Last TLE update: 16 hours ago

TLE from 16 hours ago
0 COSMOS 249 DEB
1 03912U 68091BQ  26255.05443998  .00000463  00000-0  68779-3 0  9994
2 03912  62.2449  67.3474 0796482  90.3840 278.8351 12.74420640656398
Epoch: 2026-09-12T01:18Z
TLE epoch observation values (Epoch: 2026-09-12T01:18:23.614Z)
Latitude
-0.00007°
Longitude
56.68002°
Altitude
1,319.535 km
Speed
7.219 km/s
True Right ascension
04h 29m 23s
True Declination
0° 00' 00"
Sunlit
Object was in daylight at epoch
Visualization orbit readout
Latitude
Unknown
Longitude
Unknown
Altitude
Unknown
Speed
Unknown
Apparent Right ascension
Unknown
Apparent Declination
Unknown
Sunlit
N/A
Visualization observer readout
Local Sidereal Time
09:40:27
Azimuth
Unknown
Elevation
Unknown
Doppler factor
Unknown
Orbital elements
Apogee altitude
1,979.552 km
Perigee altitude
746.419 km
Semi-major axis
7,741.123 km
Eccentricity
0.07965
Inclination
62.2449°
RAAN
67.3474°
Arg. of periapsis
90.384°
True anomaly
269.71515°
Mean anomaly
278.8351°
Eccentric anomaly
274.28435°
Mean motion
3.18667 °/min
Orbital period
112.97 mins
BSTAR
0.00068779
Loading maneuver chart data...
Computing Atmospheric mass density...

Documentation

Showing up to 5 results
|